TimeCST,TemperatureF,Dew PointF,Humidity,Sea Level PressureIn,VisibilityMPH,Wind Direction,Wind SpeedMPH,Gust SpeedMPH,PrecipitationIn,Events,Conditions,WindDirDegrees,DateUTC
12:29 AM,62.6,51.8,68,29.83,10.0,South,9.2,-,N/A,,Scattered Clouds,170,2013-01-12 06:29:00
12:53 AM,63.0,53.1,70,29.81,10.0,South,8.1,-,N/A,,Mostly Cloudy,170,2013-01-12 06:53:00
1:04 AM,62.6,53.6,72,29.83,10.0,South,9.2,18.4,N/A,,Mostly Cloudy,180,2013-01-12 07:04:00
1:53 AM,64.0,54.0,70,29.83,10.0,South,8.1,-,N/A,,Overcast,190,2013-01-12 07:53:00
2:53 AM,63.0,55.9,78,29.84,10.0,SSW,4.6,-,N/A,,Overcast,200,2013-01-12 08:53:00
3:53 AM,62.1,55.9,80,29.82,10.0,Calm,Calm,-,0.00,,Overcast,0,2013-01-12 09:53:00
4:28 AM,62.6,55.4,77,29.80,10.0,SE,9.2,-,N/A,,Scattered Clouds,130,2013-01-12 10:28:00
4:53 AM,62.1,55.0,78,29.81,10.0,South,4.6,-,N/A,,Scattered Clouds,190,2013-01-12 10:53:00
5:02 AM,60.8,55.4,82,29.83,10.0,Calm,Calm,-,N/A,,Mostly Cloudy,0,2013-01-12 11:02:00
5:53 AM,59.0,55.0,87,29.81,10.0,Calm,Calm,-,N/A,,Overcast,0,2013-01-12 11:53:00
6:53 AM,57.9,51.1,78,29.84,10.0,North,8.1,-,N/A,,Overcast,350,2013-01-12 12:53:00
7:29 AM,55.4,35.6,47,29.87,10.0,North,13.8,-,N/A,,Overcast,350,2013-01-12 13:29:00
7:53 AM,55.0,33.1,43,29.86,10.0,North,15.0,-,N/A,,Overcast,360,2013-01-12 13:53:00
8:53 AM,53.1,30.9,43,29.88,10.0,North,13.8,-,0.00,,Overcast,10,2013-01-12 14:53:00
9:53 AM,48.9,35.1,59,29.89,10.0,North,17.3,-,N/A,,Overcast,10,2013-01-12 15:53:00
10:53 AM,45.0,35.1,68,29.90,10.0,North,17.3,-,N/A,,Overcast,360,2013-01-12 16:53:00
11:53 AM,43.0,36.0,76,29.86,7.0,NNE,16.1,-,0.00,Rain,Light Rain,20,2013-01-12 17:53:00
12:53 PM,41.0,34.0,76,29.81,10.0,NNE,15.0,20.7,0.01,Rain,Light Rain,20,2013-01-12 18:53:00
1:16 PM,39.2,35.6,87,29.79,1.8,NNE,9.2,17.3,0.07,Rain,Heavy Rain,30,2013-01-12 19:16:00
1:32 PM,39.2,35.6,87,29.83,3.0,North,12.7,-,0.14,Rain,Light Rain,350,2013-01-12 19:32:00
1:53 PM,39.9,35.1,83,29.81,6.0,North,16.1,-,0.16,Rain,Light Rain,360,2013-01-12 19:53:00
2:11 PM,39.2,35.6,87,29.82,3.0,NNE,9.2,-,0.07,Rain-Thunderstorm,Light Thunderstorms and Rain,20,2013-01-12 20:11:00
2:13 PM,39.2,35.6,87,29.81,1.5,NNE,11.5,17.3,0.13,Rain-Thunderstorm,Heavy Thunderstorms and Rain,20,2013-01-12 20:13:00
2:17 PM,39.2,35.6,87,29.81,0.8,North,12.7,-,0.20,Rain-Thunderstorm,Heavy Thunderstorms and Rain,10,2013-01-12 20:17:00
2:21 PM,39.2,35.6,87,29.79,1.0,North,17.3,21.9,0.21,Rain,Heavy Rain,10,2013-01-12 20:21:00
2:26 PM,39.2,35.6,87,29.79,2.5,North,13.8,21.9,0.21,Rain,Light Rain,10,2013-01-12 20:26:00
2:31 PM,39.2,35.6,87,29.81,8.0,North,16.1,-,0.21,Rain-Thunderstorm,Light Rain,350,2013-01-12 20:31:00
2:46 PM,39.2,33.8,81,29.82,1.2,North,9.2,19.6,0.41,Rain-Thunderstorm,Heavy Thunderstorms and Rain,360,2013-01-12 20:46:00
2:49 PM,37.4,33.8,87,29.83,0.5,North,13.8,19.6,0.49,Fog-Rain-Thunderstorm,Heavy Thunderstorms and Rain,360,2013-01-12 20:49:00
2:53 PM,37.9,35.1,89,29.82,0.5,North,12.7,-,0.51,Fog-Rain,Heavy Rain,350,2013-01-12 20:53:00
2:57 PM,37.4,35.6,93,29.83,1.2,North,13.8,-,0.00,Rain,Light Rain,360,2013-01-12 20:57:00
2:59 PM,37.4,35.6,93,29.83,2.5,North,11.5,-,0.00,Rain,Light Rain,10,2013-01-12 20:59:00
3:06 PM,37.4,33.8,87,29.81,8.0,North,16.1,-,0.00,Rain,Light Rain,360,2013-01-12 21:06:00
3:53 PM,37.0,33.1,86,29.83,10.0,North,16.1,28.8,0.00,,Overcast,350,2013-01-12 21:53:00
4:53 PM,36.0,30.9,82,29.85,10.0,North,21.9,28.8,N/A,,Overcast,10,2013-01-12 22:53:00
5:53 PM,33.1,30.0,89,29.88,4.0,North,18.4,26.5,0.05,Rain,Rain,10,2013-01-12 23:53:00
6:53 PM,33.8,28.4,81,29.94,5.0,North,19.6,28.8,N/A,,Overcast,350,2013-01-13 00:53:00
7:04 PM,32.0,28.4,87,29.93,6.0,North,20.7,26.5,0.01,Rain,Light Freezing Rain,10,2013-01-13 01:04:00
7:09 PM,33.8,28.4,81,29.92,6.0,North,20.7,28.8,0.01,Rain,Light Freezing Rain,10,2013-01-13 01:09:00
7:50 PM,33.8,28.4,81,29.93,10.0,North,19.6,27.6,0.01,,Overcast,10,2013-01-13 01:50:00
7:53 PM,33.1,28.9,85,29.94,10.0,North,20.7,27.6,0.01,,Overcast,10,2013-01-13 01:53:00
8:53 PM,34.0,30.0,85,29.96,10.0,North,16.1,-,N/A,,Overcast,10,2013-01-13 02:53:00
9:53 PM,33.1,28.9,85,29.96,10.0,North,13.8,24.2,N/A,,Overcast,350,2013-01-13 03:53:00
10:03 PM,32.0,28.4,87,29.95,10.0,North,13.8,-,N/A,,Overcast,350,2013-01-13 04:03:00
10:53 PM,32.0,28.0,85,29.98,10.0,North,15.0,24.2,N/A,,Overcast,360,2013-01-13 04:53:00
11:36 PM,30.2,26.6,86,29.98,10.0,North,17.3,27.6,N/A,,Overcast,350,2013-01-13 05:36:00
11:53 PM,30.0,26.1,85,30.04,10.0,North,18.4,29.9,N/A,,Overcast,350,2013-01-13 05:53:00